College Station, TX

8:43 PM CST on January 21, 2017 (GMT -0600)
College Station

Weather History for KCLL - August, 2012

Change the Weather History Date:

Monday, August 13, 2012

  Actual Average Record
Temperature  
Mean Temperature 90 °F 86 °F  
Max Temperature 100 °F 97 °F 105 °F (1951)
Min Temperature 79 °F 75 °F 61 °F (1967)
Degree Days  
Heating Degree Days 0 0  
Month to date heating degree days 0 0  
Since 1 June heating degree days 0 0  
Since 1 July heating degree days 0 0  
Cooling Degree Days 25 21  
Month to date cooling degree days 312 272  
Year to date cooling degree days 2388 1987  
Since 1 June cooling degree days 1522 1399  
Growing Degree Days 39 (Base 50)    
Moisture  
Dew Point 72 °F    
Average Humidity 62    
Maximum Humidity 89    
Minimum Humidity 32    
Precipitation  
Precipitation 0.00 in 0.07 in 2.05 in (1933)
Month to date precipitation 0.29 0.95  
Year to date precipitation 30.11 23.79  
Sea Level Pressure  
Sea Level Pressure 29.96 in    
Wind  
Wind Speed 9 mph (SSW)    
Max Wind Speed 17 mph    
Max Gust Speed 25 mph    
Visibility 10 miles    
Events      
T = Trace of Precipitation, MM = Missing Value Source: NWS Daily Summary

Daily Weather History Graph

Daily Weather History Graph

Search for Another Location

Airport or City:

Trip Planner

Search our weather history database for the weather conditions in past years. The results will help you decide how hot, cold, wet, or windy it might be!

Date:

Astronomy

Aug. 13, 2012 Rise Set
Actual Time 6:51 AM CDT 8:08 PM CDT
Civil Twilight 6:25 AM CDT 8:34 PM CDT
Nautical Twilight 5:55 AM CDT 9:04 PM CDT
Astronomical Twilight 5:24 AM CDT 9:35 PM CDT
Moon 3:03 AM CDT (8/13) 5:14 PM CDT (8/13)
Length of Visible Light 14h 08m
Length of Day
13h 17m
Waning Crescent, 16% of the Moon is Illuminated
Aug 13
Waning Crescent
Aug 17
New
Aug 24
First Quarter
Aug 31
Full
Sep 8
Last Quarter

Hourly Weather History & Observations

Time (CDT) Temp. Heat Index Dew Point Humidity Pressure Visibility Wind Dir Wind Speed Gust Speed Precip Events Conditions
12:53 AM 84.0 °F 90.2 °F 73.0 °F 69% 29.95 in 10.0 mi South 11.5 mph - N/A   Clear
1:53 AM 82.9 °F 89.4 °F 73.9 °F 74% 29.95 in 10.0 mi South 8.1 mph - N/A   Clear
2:53 AM 82.0 °F 88.6 °F 75.0 °F 79% 29.96 in 10.0 mi South 8.1 mph - N/A   Clear
3:53 AM 81.0 °F 86.7 °F 75.0 °F 82% 29.94 in 10.0 mi South 9.2 mph - N/A   Clear
4:53 AM 81.0 °F 87.3 °F 75.9 °F 85% 29.95 in 10.0 mi SSW 5.8 mph - N/A   Clear
5:53 AM 81.0 °F 87.3 °F 75.9 °F 85% 29.96 in 10.0 mi South 3.5 mph - N/A   Clear
6:53 AM 80.1 °F 85.4 °F 75.9 °F 87% 29.98 in 10.0 mi SSW 4.6 mph - N/A   Mostly Cloudy
7:02 AM 78.8 °F - 75.2 °F 89% 29.99 in 10.0 mi SSW 4.6 mph - N/A   Scattered Clouds
7:26 AM 80.6 °F 86.2 °F 75.2 °F 84% 30.00 in 10.0 mi SSW 3.5 mph - N/A   Mostly Cloudy
7:49 AM 80.6 °F 86.2 °F 75.2 °F 84% 30.02 in 10.0 mi SSW 3.5 mph - N/A   Scattered Clouds
7:53 AM 81.0 °F 87.3 °F 75.9 °F 85% 30.00 in 10.0 mi SSW 4.6 mph - N/A   Partly Cloudy
8:53 AM 84.0 °F 92.6 °F 75.9 °F 76% 30.01 in 10.0 mi SW 10.4 mph - N/A   Mostly Cloudy
9:19 AM 84.2 °F 92.3 °F 75.2 °F 74% 30.03 in 10.0 mi SW 11.5 mph - N/A   Scattered Clouds
9:53 AM 84.9 °F 93.3 °F 75.0 °F 72% 30.02 in 10.0 mi SW 11.5 mph - N/A   Clear
10:53 AM 89.1 °F 97.0 °F 73.0 °F 59% 30.02 in 10.0 mi SW 10.4 mph - N/A   Partly Cloudy
11:53 AM 93.0 °F 99.0 °F 70.0 °F 47% 30.01 in 10.0 mi SSW 12.7 mph - N/A   Clear
12:53 PM 95.0 °F 101.3 °F 70.0 °F 44% 29.98 in 10.0 mi SSW 11.5 mph 18.4 mph N/A   Clear
1:53 PM 96.1 °F 101.6 °F 69.1 °F 41% 29.97 in 10.0 mi West 9.2 mph 16.1 mph N/A   Clear
2:53 PM 98.1 °F 104.4 °F 69.1 °F 39% 29.94 in 10.0 mi WSW 9.2 mph 19.6 mph N/A   Partly Cloudy
3:53 PM 98.1 °F 102.4 °F 66.9 °F 36% 29.91 in 10.0 mi SW 9.2 mph - N/A   Partly Cloudy
4:53 PM 99.0 °F 102.9 °F 66.0 °F 34% 29.89 in 10.0 mi Variable 6.9 mph - N/A   Clear
5:53 PM 100.0 °F 103.6 °F 64.9 °F 32% 29.87 in 10.0 mi WSW 5.8 mph - N/A   Clear
6:53 PM 98.1 °F 103.0 °F 68.0 °F 37% 29.88 in 10.0 mi South 10.4 mph - N/A   Clear
7:53 PM 95.0 °F 99.5 °F 68.0 °F 41% 29.88 in 10.0 mi South 9.2 mph - N/A   Clear
8:53 PM 93.0 °F 97.9 °F 69.1 °F 45% 29.90 in 10.0 mi South 8.1 mph - N/A   Clear
9:53 PM 90.0 °F 94.5 °F 69.1 °F 50% 29.92 in 10.0 mi South 6.9 mph - N/A   Clear
10:53 PM 89.1 °F 93.7 °F 69.1 °F 52% 29.94 in 10.0 mi South 11.5 mph - N/A   Clear
11:53 PM 87.1 °F 94.5 °F 73.0 °F 63% 29.94 in 10.0 mi South 9.2 mph - N/A   Clear